Miscellaneous Local Product
Issued by NWS North Platte, NE

Home | Current Version | Previous Version | Graphics & Text | Print | Product List | Glossary On
Versions: 1 2 3 4 5 6 7 8 9 10 11 12 13 14 15 16 17 18 19 20 21 22 23 24 25 26 27 28 29 30 31 32 33 34 35 36 37 38 39 40 41 42 43 44 45 46 47 48 49 50
000
AXUS43 KLBF 271810
MISLBF


WESTERN AND NORTH CENTRAL NEBRASKA HOURLY WEATHER ROUNDUP
NATIONAL WEATHER SERVICE NORTH PLATTE NE
1200 PM CST FRI FEB 27 2015

***STATIONS NOT REPORTING VARIABLES SUCH AS SKY/WEATHER OR
PRESSURE ARE PROVIDED BY THE NEBRASKA DEPARTMENT OF
ROADS...RAWS...AND APRS NETWORKS...AND ARE NOT UNDER
NATIONAL WEATHER SERVICE QUALITY CONTROL***

...OBSERVATIONS IN AND NEAR THE EASTERN PANHANDLE OF NEBRASKA...

CITY           SKY/WX    TMP DP  RH WIND       PRES   REMARKS
PINE RIDGE     PTSUNNY   21   9  59 S20       30.17F WCI   6
CHADRON        MOSUNNY   20  10  65 S18       30.16F WCI   5
ALLIANCE       CLOUDY    17   8  67 S21G28    30.14F WCI   0
SIDNEY         LGT SNOW  16   8  71 S22       30.14F WCI  -2
WHITECLAY        N/A     18   7  62 S21         N/A  WCI   1
CRESCENT LAKE    N/A     16   5  61 S13G20      N/A  WCI   2
LISCO            N/A     21   7  56 E16         N/A  WCI   7
BIG SPRINGS      N/A     21  11  65 S17         N/A  WCI   7
LEWELLEN         N/A     13   2  62 S14         N/A  WCI  -2
$$

...OBSERVATIONS IN NORTH CENTRAL NEBRASKA...

CITY           SKY/WX    TMP DP  RH WIND       PRES   REMARKS
VALENTINE      SUNNY     18   0  45 S13       30.32F WCI   5
THEDFORD       SUNNY     18   0  44 S12G17    30.33F WCI   6
AINSWORTH      SUNNY     17  -1  45 SW9       30.35F WCI   6
O`NEILL        SUNNY     17   3  53 SW8       30.44F WCI   7
ORD            SUNNY     17  -4  39 S14       30.45F WCI   3
BROKEN BOW     SUNNY     17   0  47 S9        30.39F WCI   6
BROWNLEE         N/A     14  -3  46 S14         N/A  WCI  -1
SPRINGVIEW       N/A     18   0  45 SW8         N/A  WCI   8
BREWSTER         N/A     22   3  43 S8          N/A  WCI  13
ROSE             N/A     24  10  53 SE8         N/A  WCI  15
NEWPORT          N/A     23   6  48 S12         N/A  WCI  11
SARGENT          N/A     16   1  51 SE3G12      N/A
COMSTOCK         N/A     21   0  39 S6          N/A  WCI  14
CHAMBERS         N/A     20   1  43 S8          N/A  WCI  10
EWING            N/A     16   5  60 SW6         N/A  WCI   8
$$

...OBSERVATIONS IN SOUTHWEST NEBRASKA AND FAR NORTHEAST COLORADO...

CITY           SKY/WX    TMP DP  RH WIND       PRES   REMARKS
WRAY           LGT SNOW  19  11  70 S16G23    30.23F WCI   5
IMPERIAL       CLOUDY    18   7  62 SE18      30.28F WCI   2
OGALLALA       CLOUDY    18   8  63 SE12      30.27F WCI   6
NORTH PLATTE   CLOUDY    17  -1  45 S16       30.35F WCI   2
MCCOOK         CLOUDY    19   2  47 S10       30.39F WCI   7
LEXINGTON      SUNNY     18  -1  43 S9        30.42F WCI   7
PAXTON           N/A     17   7  65 S12         N/A  WCI   4
BRADY            N/A     17   1  49 CALM        N/A
GOTHENBURG       N/A     16  -1  45 S8          N/A  WCI   5
CALLAWAY         N/A     16   4  57 S13         N/A  WCI   2
$$

...NORTH PLATTE AREA...

CITY           SKY/WX    TMP DP  RH WIND       PRES   REMARKS
AIRPORT        CLOUDY    17  -1  45 S16       30.35F WCI   2
DOWNTOWN         N/A     16  -1  47 S9          N/A  WCI   5
$$

...SOME WEATHER OBSERVATIONS FROM AROUND THE REGION...

CITY           SKY/WX    TMP DP  RH WIND       PRES   REMARKS
DENVER         MOSUNNY   14   3  61 S12       29.97F WCI   0
LARAMIE        SUNNY     13   4  67 S8        29.78F WCI   2
CHEYENNE       LGT SNOW   8   2  76 S18       29.91F WCI -11
SCOTTSBLUFF    CLOUDY    20   8  60 S17G30    30.12F WCI   5
RAPID CITY     SUNNY     16   6  65 S22       30.13F WCI  -2
PIERRE         SUNNY     19  -1  41 S9G20     30.37F WCI   8
WINNER         FAIR      18   0  45 S14       30.39F WCI   4
SIOUX FALLS    SUNNY     10  -3  55 VRB5      30.52F WCI   2
OMAHA          MOSUNNY   11   2  67 CALM      30.63S
GRAND ISLAND   SUNNY     15  -1  49 CALM      30.51F
KANSAS CITY    CLOUDY    11  -1  58 CALM      30.63F
WICHITA        LGT SNOW  14   6  70 NE8       30.56F VSB 1   WCI   3
HAYS           CLOUDY    16  -6  38 E10       30.47F WCI   3
LIBERAL        CLOUDY    14   7  73 SE15      30.39S WCI  -1
GOODLAND       LGT SNOW  15   9  76 S18G24    30.27S WCI  -2
$$



USA.gov is the U.S. government's official web portal to all federal, state and local government web resources and services.